EW4963 Weather Reports


Display with metric or nautical units.
time (UTC)temp
F
wind
direction
speed
MPH
gust
MPH
rain 1hr
in
rain 24hr
in
rain mn
in
humidity
%
barometer
mb
20201129013855 53 21 1.0 3.0 0.01 0.01 0.01 72 1016.4
20201129013359 53 21 2.0 3.0 0.01 0.01 0.01 70 1016.5
20201129012852 53 49 1.0 2.0 0.01 0.01 0.01 67 1015.9
20201129012350 53 49 1.0 2.0 0.00 0.00 0.00 64 1015.9
20201129011854 54 49 0.0 2.0 0.00 0.00 0.00 60 1015.9
20201129011349 53 49 0.0 2.0 0.00 0.00 0.00 58 1015.4
20201129010846 53 49 1.0 2.0 0.00 0.00 0.00 56 1015.4
20201129010347 54 49 2.0 6.0 0.00 0.00 0.00 57 1015.4
20201129005819 54 49 3.0 6.0 0.00 0.00 0.00 56 1015.3
20201129005320 54 25 2.0 6.0 0.00 0.00 0.00 56 1015.3
20201129004820 54 92 3.0 6.0 0.00 0.00 0.00 56 1015.3
20201129004319 54 105 3.0 6.0 0.00 0.00 0.00 56 1014.8
20201129003817 54 99 4.0 8.0 0.00 0.00 0.00 56 1014.8
20201129003316 54 52 4.0 8.0 0.00 0.00 0.00 56 1014.8
20201129002816 54 62 3.0 6.0 0.00 0.00 0.00 56 1014.8
20201129002316 54 80 4.0 7.0 0.00 0.00 0.00 55 1014.9
20201129001816 54 55 4.0 9.0 0.00 0.00 0.00 54 1014.9
20201129001315 54 79 4.0 9.0 0.00 0.00 0.00 54 1014.9
20201129000817 54 83 4.0 10.0 0.00 0.00 0.00 54 1014.9
20201129000318 54 57 5.0 10.0 0.00 0.00 0.00 54 1014.9
20201128235810 54 63 5.0 12.0 0.00 0.00 0.00 54 1014.4
20201128235310 55 37 5.0 12.0 0.00 0.00 0.00 54 1014.4
20201128234806 55 59 6.0 12.0 0.00 0.00 0.00 54 1014.4
20201128234305 55 44 6.0 12.0 0.00 0.00 0.00 55 1014.6
20201128233807 55 68 6.0 11.0 0.00 0.00 0.00 55 1014.6
20201128233306 55 59 6.0 11.0 0.00 0.00 0.00 56 1014.6
20201128232806 55 46 5.0 10.0 0.00 0.00 0.00 56 1015.0
20201128232305 55 24 5.0 9.0 0.00 0.00 0.00 56 1015.0
20201128231804 55 50 4.0 9.0 0.00 0.00 0.00 56 1015.0
20201128231305 55 86 4.0 8.0 0.00 0.00 0.00 56 1015.3
20201128230803 55 40 4.0 9.0 0.00 0.00 0.00 56 1015.3
20201128230302 55 34 4.0 9.0 0.00 0.00 0.00 55 1015.3
20201128225804 56 51 4.0 8.0 0.00 0.00 0.00 55 1015.4
20201128225305 56 56 4.0 8.0 0.00 0.00 0.00 55 1015.4
20201128224757 56 86 4.0 8.0 0.00 0.00 0.00 55 1015.4
20201128224301 56 92 4.0 8.0 0.00 0.00 0.00 55 1015.7
20201128223759 56 56 4.0 9.0 0.00 0.00 0.00 54 1015.7
20201128223257 56 22 5.0 9.0 0.00 0.00 0.00 54 1015.7
20201128222757 56 75 4.0 9.0 0.00 0.00 0.00 54 1015.9
20201128222255 56 88 4.0 8.0 0.00 0.00 0.00 54 1015.9
20201128221756 56 96 4.0 7.0 0.00 0.00 0.00 54 1015.9
20201128221254 56 64 4.0 8.0 0.00 0.00 0.00 54 1015.9
20201128220755 56 97 5.0 9.0 0.00 0.00 0.00 54 1015.9
20201128220254 56 148 5.0 10.0 0.00 0.00 0.00 54 1015.9
20201128215755 56 106 6.0 10.0 0.00 0.00 0.00 54 1015.9
20201128215254 57 96 6.0 9.0 0.00 0.00 0.00 53 1016.0
20201128214751 57 75 5.0 8.0 0.00 0.00 0.00 54 1016.0
20201128214249 57 64 5.0 10.0 0.00 0.00 0.00 54 1016.0
20201128213750 57 91 5.0 10.0 0.00 0.00 0.00 54 1016.0
20201128213249 57 140 5.0 9.0 0.00 0.00 0.00 54 1016.0
20201128212748 57 121 5.0 9.0 0.00 0.00 0.00 54 1016.0
20201128212250 57 39 4.0 10.0 0.00 0.00 0.00 54 1016.0
20201128211746 57 68 4.0 10.0 0.00 0.00 0.00 54 1016.0
20201128211245 57 69 6.0 10.0 0.00 0.00 0.00 54 1016.5
20201128210747 58 45 6.0 10.0 0.00 0.00 0.00 53 1016.5
20201128210245 58 113 5.0 9.0 0.00 0.00 0.00 54 1016.5
20201128205746 58 64 5.0 9.0 0.00 0.00 0.00 54 1016.3
20201128205245 58 92 5.0 9.0 0.00 0.00 0.00 54 1016.3
20201128204746 57 46 6.0 12.0 0.00 0.00 0.00 54 1016.3
20201128204242 58 92 6.0 12.0 0.00 0.00 0.00 54 1015.9
20201128203738 58 107 6.0 11.0 0.00 0.00 0.00 54 1015.9
20201128203242 58 57 6.0 12.0 0.00 0.00 0.00 54 1015.9
20201128202741 58 49 6.0 12.0 0.00 0.00 0.00 54 1015.4
20201128202237 58 21 6.0 12.0 0.00 0.00 0.00 55 1015.4
20201128201738 57 57 7.0 13.0 0.00 0.00 0.00 55 1015.4
20201128201240 57 37 7.0 14.0 0.00 0.00 0.00 56 1015.5
20201128200737 57 78 7.0 14.0 0.00 0.00 0.00 56 1015.5
20201128200240 57 15 6.0 14.0 0.00 0.00 0.00 57 1015.5
20201128195748 57 44 6.0 14.0 0.00 0.00 0.00 58 1015.8
20201128195238 56 55 6.0 12.0 0.00 0.00 0.00 59 1015.7
20201128194739 56 42 6.0 12.0 0.00 0.00 0.00 59 1015.7
20201128194238 56 323 7.0 13.0 0.00 0.00 0.00 59 1015.8
20201128193739 56 355 8.0 14.0 0.00 0.00 0.00 60 1015.8
20201128193234 56 67 7.0 14.0 0.00 0.00 0.00 59 1015.8
20201128192730 56 43 5.0 10.0 0.00 0.00 0.00 59 1016.4
20201128192230 56 42 5.0 9.0 0.00 0.00 0.00 59 1016.4
20201128191729 56 306 5.0 9.0 0.00 0.00 0.00 61 1016.4
20201128191229 55 94 6.0 10.0 0.00 0.00 0.00 61 1017.5
20201128190730 55 56 6.0 10.0 0.00 0.00 0.00 61 1017.4
20201128190230 55 51 5.0 10.0 0.00 0.00 0.00 62 1017.4
20201128185729 55 51 5.0 12.0 0.00 0.00 0.00 62 1017.9
20201128185231 55 59 5.0 12.0 0.00 0.00 0.00 62 1017.9
20201128184727 55 61 3.0 7.0 0.00 0.00 0.00 63 1017.9
20201128184224 55 74 3.0 8.0 0.00 0.00 0.00 63 1018.1
20201128183723 55 65 4.0 8.0 0.00 0.00 0.00 62 1018.1
20201128183220 55 75 4.0 8.0 0.00 0.00 0.00 63 1018.1
20201128182721 55 84 4.0 7.0 0.00 0.00 0.00 63 1018.4
20201128182219 55 65 4.0 9.0 0.00 0.00 0.00 63 1018.4
20201128181727 55 29 4.0 9.0 0.00 0.00 0.00 63 1018.4
20201128181217 54 94 4.0 8.0 0.00 0.00 0.00 63 1018.5
20201128180713 54 65 5.0 9.0 0.00 0.00 0.00 64 1018.5
20201128180210 54 44 5.0 9.0 0.00 0.00 0.00 64 1018.4
20201128175712 54 51 5.0 9.0 0.00 0.00 0.00 64 1018.9
20201128175211 54 88 4.0 8.0 0.00 0.00 0.00 64 1018.9
20201128174713 54 57 5.0 8.0 0.00 0.00 0.00 64 1018.9
20201128174206 54 43 6.0 10.0 0.00 0.00 0.00 64 1018.9
20201128173706 54 70 6.0 10.0 0.00 0.00 0.00 63 1018.9
20201128173206 54 46 6.0 11.0 0.00 0.00 0.00 63 1018.9
20201128172204 54 96 5.0 8.0 0.00 0.00 0.00 64 1019.0
20201128171710 54 82 6.0 13.0 0.00 0.00 0.00 65 1019.0
20201128171204 53 46 6.0 14.0 0.00 0.00 0.00 65 1019.1
20201128170703 53 68 6.0 14.0 0.00 0.00 0.00 65 1019.1
20201128170202 53 69 7.0 14.0 0.00 0.00 0.00 65 1019.1
20201128165701 53 72 6.0 14.0 0.00 0.00 0.00 66 1019.5
20201128165203 53 74 6.0 13.0 0.00 0.00 0.00 66 1019.5
20201128164700 53 63 7.0 13.0 0.00 0.00 0.00 66 1019.5
20201128164158 53 5 7.0 14.0 0.00 0.00 0.00 67 1019.6
20201128163659 53 83 7.0 14.0 0.00 0.00 0.00 67 1019.5
20201128163157 52 60 6.0 11.0 0.00 0.00 0.00 67 1019.5
20201128162700 52 14 6.0 11.0 0.00 0.00 0.00 68 1019.4
20201128162156 52 79 6.0 11.0 0.00 0.00 0.00 68 1019.4
20201128161653 52 72 7.0 14.0 0.00 0.00 0.00 68 1019.4
20201128161218 51 88 8.0 14.0 0.00 0.00 0.00 69 1019.3
20201128160654 51 115 8.0 14.0 0.00 0.00 0.00 68 1019.3
20201128160152 51 44 9.0 18.0 0.00 0.00 0.00 70 1019.3
20201128155652 51 53 9.0 22.0 0.00 0.00 0.00 70 1019.3
20201128155200 51 117 8.0 22.0 0.00 0.00 0.00 70 1019.3
20201128154651 51 90 8.0 24.0 0.00 0.00 0.00 71 1019.3
20201128154148 50 102 9.0 24.0 0.00 0.00 0.00 72 1018.9
20201128153651 50 103 8.0 15.0 0.00 0.00 0.00 73 1018.9
20201128153146 49 97 9.0 15.0 0.00 0.00 0.00 73 1018.9
20201128152647 49 93 8.0 16.0 0.00 0.00 0.00 74 1019.0
20201128152147 49 98 8.0 16.0 0.00 0.00 0.00 75 1018.9
20201128151646 48 30 7.0 15.0 0.00 0.00 0.00 77 1018.9
20201128151145 48 80 6.0 15.0 0.00 0.00 0.00 78 1019.1
20201128150645 47 61 6.0 12.0 0.00 0.00 0.00 79 1019.1
20201128150146 46 46 6.0 10.0 0.00 0.00 0.00 81 1019.0
20201128145645 45 74 6.0 10.0 0.00 0.00 0.00 82 1019.1
20201128145146 44 55 6.0 10.0 0.00 0.00 0.00 83 1019.0
20201128144641 44 80 6.0 10.0 0.00 0.00 0.00 83 1019.0
20201128144142 43 17 6.0 9.0 0.00 0.00 0.00 84 1019.0
20201128143634 42 49 6.0 9.0 0.00 0.00 0.00 84 1019.0
20201128143134 42 45 6.0 11.0 0.00 0.00 0.00 84 1019.0
20201128142630 42 344 6.0 11.0 0.00 0.00 0.00 84 1019.0
20201128142128 41 29 5.0 11.0 0.00 0.00 0.00 84 1018.9
20201128141631 41 59 5.0 11.0 0.00 0.00 0.00 84 1018.9
20201128141128 41 46 4.0 7.0 0.00 0.00 0.00 84 1018.9
20201128140631 41 41 4.0 6.0 0.00 0.00 0.00 84 1018.9
20201128140119 41 23 3.0 6.0 0.00 0.00 0.00 84 1018.9
20201128135619 41 19 3.0 6.0 0.00 0.00 0.00 83 1018.9
20201128135114 41 42 3.0 6.0 0.00 0.00 0.00 83 1018.9
20201128134620 41 32 3.0 8.0 0.00 0.00 0.00 83 1018.9
20201128134123 41 41 4.0 8.0 0.00 0.00 0.00 83 1018.6
20201128133618 41 18 5.0 8.0 0.00 0.00 0.00 83 1018.6
20201128133113 41 29 4.0 8.0 0.00 0.00 0.00 83 1018.6
20201128132609 41 35 4.0 8.0 0.00 0.00 0.00 83 1018.5
20201128132117 41 36 4.0 9.0 0.00 0.00 0.00 83 1018.5
20201128131610 42 24 4.0 9.0 0.00 0.00 0.00 82 1018.5
20201128131114 42 25 3.0 6.0 0.00 0.00 0.00 82 1018.6
20201128130614 42 42 3.0 6.0 0.00 0.00 0.00 82 1018.6
20201128130114 42 40 4.0 6.0 0.00 0.00 0.00 82 1018.6
20201128125610 42 34 3.0 7.0 0.00 0.00 0.00 82 1018.5
20201128125109 42 0 3.0 7.0 0.00 0.00 0.00 81 1018.5
20201128124611 42 32 3.0 6.0 0.00 0.00 0.00 81 1018.5
20201128124111 42 32 3.0 6.0 0.00 0.00 0.00 81 1018.5
20201128123610 42 34 3.0 6.0 0.00 0.00 0.00 81 1018.5
20201128123111 42 29 2.0 5.0 0.00 0.00 0.00 81 1018.5
20201128122606 42 0 2.0 5.0 0.00 0.00 0.00 81 1018.4
20201128122105 42 5 2.0 4.0 0.00 0.00 0.00 81 1018.4
20201128121604 43 5 1.0 4.0 0.00 0.00 0.00 81 1018.4
20201128121105 43 21 1.0 4.0 0.00 0.00 0.00 81 1018.3
20201128120607 43 22 1.0 4.0 0.00 0.00 0.00 80 1018.3
20201128120108 43 22 1.0 5.0 0.00 0.00 0.00 81 1018.4
20201128115602 43 21 2.0 5.0 0.00 0.00 0.00 81 1018.2
20201128115257 43 17 2.0 6.0 0.00 0.00 0.00 81 1018.2
20201128114621 43 15 3.0 7.0 0.00 0.00 0.00 81 1018.2
20201128114102 43 0 3.0 7.0 0.00 0.00 0.00 81 1018.2
20201128113559 43 355 2.0 6.0 0.00 0.00 0.00 81 1018.2
20201128113058 43 20 2.0 6.0 0.00 0.00 0.00 81 1018.2
20201128112559 43 13 2.0 5.0 0.00 0.00 0.00 81 1018.1
20201128112058 43 13 3.0 5.0 0.00 0.00 0.00 81 1018.1
20201128111600 43 343 3.0 5.0 0.00 0.00 0.00 81 1018.1
20201128111059 43 342 3.0 5.0 0.00 0.00 0.00 81 1018.2
20201128110600 43 0 3.0 7.0 0.00 0.00 0.00 81 1018.2
20201128110105 43 36 2.0 7.0 0.00 0.00 0.00 81 1018.2
20201128105557 43 24 2.0 6.0 0.00 0.00 0.00 81 1018.3
20201128105055 43 35 2.0 6.0 0.00 0.00 0.00 81 1018.3
20201128104549 44 348 2.0 5.0 0.00 0.00 0.00 81 1018.3
20201128104049 44 348 2.0 6.0 0.00 0.00 0.00 81 1018.2
20201128103533 44 32 3.0 7.0 0.00 0.00 0.00 81 1018.2
20201128103029 44 348 3.0 7.0 0.00 0.00 0.00 81 1018.2
20201128102529 44 30 3.0 7.0 0.00 0.00 0.00 81 1018.0
20201128102027 44 19 3.0 7.0 0.00 0.00 0.00 81 1018.0
20201128101528 44 39 3.0 5.0 0.00 0.00 0.00 81 1018.0
20201128101031 44 17 3.0 6.0 0.00 0.00 0.00 81 1018.0
20201128100529 44 9 2.0 6.0 0.00 0.00 0.00 80 1018.0
20201128100044 44 22 2.0 6.0 0.00 0.00 0.00 80 1018.0
20201128095526 44 18 3.0 6.0 0.00 0.00 0.00 80 1018.1
20201128095027 44 342 3.0 7.0 0.00 0.00 0.00 80 1018.1
20201128094524 44 12 3.0 7.0 0.00 0.00 0.00 80 1018.1
20201128094024 44 17 3.0 6.0 0.00 0.00 0.00 79 1018.0
20201128093525 44 11 3.0 7.0 0.00 0.00 0.00 79 1018.0
20201128093021 44 28 3.0 8.0 0.00 0.00 0.00 79 1018.0
20201128092521 44 0 3.0 8.0 0.00 0.00 0.00 79 1018.2
20201128092019 45 344 3.0 8.0 0.00 0.00 0.00 79 1018.3
20201128091520 45 346 2.0 5.0 0.00 0.00 0.00 79 1018.3
20201128091015 45 333 2.0 5.0 0.00 0.00 0.00 79 1018.4
20201128090527 45 17 2.0 5.0 0.00 0.00 0.00 79 1018.4
20201128090021 45 0 3.0 7.0 0.00 0.00 0.00 79 1018.4
20201128085458 45 0 3.0 7.0 0.00 0.00 0.00 79 1018.2
20201128084959 45 0 3.0 6.0 0.00 0.00 0.00 79 1018.2
20201128084457 45 355 3.0 5.0 0.00 0.00 0.00 78 1018.2
20201128083957 45 350 3.0 5.0 0.00 0.00 0.00 78 1018.2
20201128083459 45 38 2.0 5.0 0.00 0.00 0.00 78 1018.2
20201128082954 46 355 2.0 8.0 0.00 0.00 0.00 78 1018.2
20201128082446 46 344 2.0 8.0 0.00 0.00 0.00 78 1018.2
20201128081945 46 12 2.0 6.0 0.00 0.00 0.00 77 1018.2
20201128081444 46 11 2.0 6.0 0.00 0.00 0.00 77 1018.2
20201128080943 46 0 2.0 6.0 0.00 0.00 0.00 77 1018.2
20201128080438 46 0 2.0 6.0 0.00 0.00 0.00 77 1018.2
20201128075933 46 26 2.0 6.0 0.00 0.00 0.00 77 1018.3
20201128075430 47 9 2.0 6.0 0.00 0.00 0.00 77 1018.4
20201128074926 47 0 2.0 5.0 0.00 0.00 0.00 76 1018.4
20201128074423 47 345 2.0 7.0 0.00 0.00 0.00 76 1018.3
20201128073924 47 355 2.0 7.0 0.00 0.00 0.00 77 1018.3
20201128073427 47 17 3.0 7.0 0.00 0.00 0.00 77 1018.3
20201128072926 47 11 3.0 7.0 0.00 0.00 0.00 76 1018.4
20201128072425 47 355 3.0 7.0 0.00 0.00 0.00 76 1018.4
20201128071919 47 355 2.0 5.0 0.00 0.00 0.00 76 1018.4
20201128071419 47 15 2.0 6.0 0.00 0.00 0.00 76 1018.5
20201128070917 48 340 2.0 6.0 0.00 0.00 0.00 76 1018.5
20201128070418 48 34 2.0 6.0 0.00 0.00 0.00 75 1018.5
20201128065913 48 22 3.0 6.0 0.00 0.00 0.00 75 1018.6
20201128065412 48 23 3.0 6.0 0.00 0.00 0.00 75 1018.6
20201128064911 48 5 2.0 5.0 0.00 0.00 0.00 75 1018.6
20201128064410 48 327 2.0 5.0 0.00 0.00 0.00 75 1018.6
20201128063907 48 333 1.0 5.0 0.00 0.00 0.00 75 1018.6
20201128063409 48 333 2.0 5.0 0.00 0.00 0.00 75 1018.6
20201128062853 49 325 3.0 8.0 0.00 0.00 0.00 75 1018.6
20201128062355 49 334 3.0 9.0 0.00 0.00 0.00 74 1018.6
20201128061859 49 16 4.0 9.0 0.00 0.00 0.00 74 1018.6
20201128061354 49 29 3.0 7.0 0.00 0.00 0.00 74 1018.6
20201128060852 49 5 2.0 5.0 0.00 0.00 0.00 74 1018.6
20201128060353 49 0 3.0 6.0 0.00 0.00 0.00 74 1018.6
20201128055850 49 17 3.0 8.0 0.00 0.00 0.00 74 1018.1
20201128055353 49 355 4.0 10.0 0.00 0.00 0.00 74 1018.1
20201128054849 49 30 5.0 10.0 0.00 0.00 0.00 74 1018.1
20201128054347 49 59 5.0 9.0 0.00 0.00 0.00 73 1018.2
20201128053852 49 41 4.0 9.0 0.00 0.00 0.00 73 1018.2
20201128053355 50 57 5.0 9.0 0.00 0.00 0.00 73 1018.2
20201128052844 50 28 4.0 9.0 0.00 0.00 0.00 73 1018.5
20201128052345 50 16 3.0 7.0 0.00 0.00 0.00 73 1018.5
20201128051850 50 355 3.0 8.0 0.00 0.00 0.00 73 1018.5
20201128051338 50 36 4.0 9.0 0.00 0.00 0.00 72 1018.6
20201128050834 50 36 4.0 8.0 0.00 0.00 0.00 72 1018.6
20201128050338 50 38 3.0 8.0 0.00 0.00 0.00 72 1018.7
20201128045834 50 340 3.0 9.0 0.00 0.00 0.00 72 1018.5
20201128045337 50 303 4.0 9.0 0.00 0.00 0.00 72 1018.5
20201128044832 50 36 3.0 8.0 0.00 0.00 0.00 72 1018.5
20201128044329 51 321 3.0 10.0 0.00 0.00 0.00 72 1018.3
20201128043829 51 22 3.0 10.0 0.00 0.00 0.00 72 1018.3
20201128043328 51 40 4.0 10.0 0.00 0.00 0.00 72 1018.3
20201128042827 51 10 5.0 13.0 0.00 0.00 0.00 73 1018.2
20201128042326 51 22 5.0 13.0 0.00 0.00 0.00 73 1018.2
20201128041825 51 32 4.0 9.0 0.00 0.00 0.00 73 1018.2
20201128041323 51 31 4.0 8.0 0.00 0.00 0.00 72 1018.2
20201128040825 51 24 3.0 6.0 0.00 0.00 0.00 72 1018.2
20201128040318 51 12 3.0 6.0 0.00 0.00 0.00 72 1018.2
20201128035817 51 15 3.0 6.0 0.00 0.00 0.00 72 1018.0
20201128035316 51 355 4.0 8.0 0.00 0.00 0.00 71 1018.0
20201128034805 51 26 4.0 8.0 0.00 0.00 0.00 71 1018.0
20201128034305 52 29 4.0 9.0 0.00 0.00 0.00 71 1018.0
20201128033805 52 33 5.0 9.0 0.00 0.00 0.00 71 1018.1
20201128033304 52 57 4.0 10.0 0.00 0.00 0.00 71 1018.1
20201128032805 52 332 4.0 10.0 0.00 0.00 0.00 70 1018.2
20201128032307 52 27 3.0 9.0 0.00 0.00 0.00 70 1018.2
20201128031808 53 46 3.0 9.0 0.00 0.00 0.00 69 1018.2
20201128031310 53 5 4.0 10.0 0.00 0.00 0.00 69 1018.3
20201128030810 53 350 5.0 10.0 0.00 0.00 0.00 69 1018.3
20201128030310 53 9 5.0 9.0 0.00 0.00 0.00 68 1018.3
20201128025802 53 38 5.0 10.0 0.00 0.00 0.00 69 1018.0
20201128025300 54 32 5.0 11.0 0.00 0.00 0.00 69 1018.1
20201128024803 54 29 4.0 11.0 0.00 0.00 0.00 68 1018.1
20201128024301 54 51 4.0 10.0 0.00 0.00 0.00 68 1018.1
20201128023802 54 43 5.0 10.0 0.00 0.00 0.00 68 1018.1
20201128023254 54 0 4.0 9.0 0.00 0.00 0.00 69 1018.1
20201128022754 54 355 3.0 6.0 0.00 0.00 0.00 69 1017.9
20201128022255 54 337 3.0 8.0 0.00 0.00 0.00 69 1017.9
20201128021753 54 323 4.0 8.0 0.00 0.00 0.00 69 1017.9
20201128021254 54 29 4.0 7.0 0.00 0.00 0.00 70 1017.9
20201128020750 54 347 4.0 7.0 0.00 0.00 0.00 70 1017.9
20201128020251 54 13 3.0 7.0 0.00 0.00 0.00 70 1017.9
20201128015752 54 12 3.0 7.0 0.00 0.00 0.00 70 1017.6
20201128015250 55 0 2.0 6.0 0.00 0.00 0.00 70 1017.6
20201128014749 55 17 2.0 6.0 0.00 0.00 0.00 70 1017.6
20201128014250 55 336 3.0 6.0 0.00 0.00 0.00 70 1017.8